TimeCST,TemperatureF,Dew PointF,Humidity,Sea Level PressureIn,VisibilityMPH,Wind Direction,Wind SpeedMPH,Gust SpeedMPH,PrecipitationIn,Events,Conditions,WindDirDegrees,DateUTC
12:56 AM,42.1,30.0,62,30.07,-9999.0,West,15.0,23.0,N/A,,Unknown,280,2012-11-15 06:56:00
1:56 AM,39.0,30.0,70,30.09,-9999.0,WNW,6.9,-,N/A,,Unknown,290,2012-11-15 07:56:00
2:56 AM,39.9,32.0,73,30.12,-9999.0,NW,13.8,-,N/A,,Unknown,310,2012-11-15 08:56:00
3:56 AM,37.0,30.0,76,30.14,-9999.0,NNW,12.7,-,N/A,,Unknown,330,2012-11-15 09:56:00
4:56 AM,36.0,28.9,76,30.17,-9999.0,NNW,13.8,-,N/A,,Unknown,330,2012-11-15 10:56:00
5:56 AM,34.0,28.0,79,30.22,-9999.0,NNW,15.0,-,N/A,,Unknown,330,2012-11-15 11:56:00
6:56 AM,30.9,27.0,85,30.27,-9999.0,NNW,16.1,-,N/A,,Unknown,340,2012-11-15 12:56:00
7:56 AM,30.0,26.1,85,30.32,-9999.0,NNW,15.0,-,N/A,,Unknown,340,2012-11-15 13:56:00
8:56 AM,32.0,26.1,79,30.35,-9999.0,NNW,13.8,-,N/A,,Unknown,340,2012-11-15 14:56:00
9:56 AM,34.0,23.0,64,30.38,-9999.0,North,17.3,-,N/A,,Unknown,360,2012-11-15 15:56:00
10:56 AM,35.1,21.9,59,30.41,-9999.0,North,18.4,-,N/A,,Unknown,10,2012-11-15 16:56:00
11:56 AM,36.0,21.9,57,30.42,-9999.0,North,15.0,-,N/A,,Unknown,360,2012-11-15 17:56:00
12:56 PM,37.0,21.9,54,30.43,-9999.0,North,17.3,-,N/A,,Unknown,350,2012-11-15 18:56:00
1:56 PM,37.0,19.9,50,30.44,-9999.0,North,13.8,-,N/A,,Unknown,10,2012-11-15 19:56:00
2:56 PM,37.0,17.1,44,30.44,-9999.0,North,13.8,-,N/A,,Unknown,350,2012-11-15 20:56:00
3:56 PM,36.0,16.0,44,30.47,-9999.0,North,13.8,-,N/A,,Unknown,360,2012-11-15 21:56:00
4:56 PM,28.9,18.0,64,30.49,-9999.0,North,6.9,-,N/A,,Unknown,360,2012-11-15 22:56:00
5:56 PM,24.1,16.0,71,30.51,-9999.0,North,4.6,-,N/A,,Unknown,10,2012-11-15 23:56:00
6:56 PM,21.9,16.0,78,30.52,-9999.0,NNW,4.6,-,N/A,,Unknown,330,2012-11-16 00:56:00
7:56 PM,24.1,16.0,71,30.53,-9999.0,Calm,Calm,-,N/A,,Unknown,0,2012-11-16 01:56:00
8:56 PM,19.9,15.1,81,30.54,-9999.0,Calm,Calm,-,N/A,,Unknown,0,2012-11-16 02:56:00
9:56 PM,19.9,15.1,81,30.54,-9999.0,WSW,3.5,-,N/A,,Unknown,240,2012-11-16 03:56:00
10:56 PM,18.0,14.0,84,30.54,-9999.0,Calm,Calm,-,N/A,,Unknown,0,2012-11-16 04:56:00
11:56 PM,18.0,15.1,88,30.55,-9999.0,SW,5.8,-,N/A,,Unknown,230,2012-11-16 05:56:00